LNI796 WASS-WAJJ

Flight info

Callsign LNI796
Flight time 1h 36m
Altitude 35000
Route JOLAM W53 BIK W41 KUBIA
Aircraft B738/M-SDE2E3FGHIRWXY/LB1

Departure

Time 2026-05-06 06:47
Airport Domine Eduard Osok Airport (WASS)

Arrival

Time 2026-05-06 08:23
Airport Dortheys Hiyo Eluay International Airport (WAJJ)
Time Latitude Longitude Altitude Speed Heading
2026-05-06 06:33 -0.89174 131.29077 25 ft 0 kts
2026-05-06 06:39 -0.89175 131.29077 24 ft 1 kts
2026-05-06 06:39 -0.89196 131.29076 24 ft 4 kts
2026-05-06 06:40 -0.89217 131.29066 30 ft 4 kts 67°
2026-05-06 06:40 -0.89220 131.29043 26 ft 2 kts 93°
2026-05-06 06:40 -0.89219 131.29038 24 ft 0 kts 93°
2026-05-06 06:42 -0.89220 131.29038 28 ft 1 kts 93°
2026-05-06 06:43 -0.89221 131.29070 24 ft 8 kts 93°
2026-05-06 06:43 -0.89227 131.29128 28 ft 9 kts 110°
2026-05-06 06:43 -0.89276 131.29156 25 ft 9 kts 175°
2026-05-06 06:43 -0.89353 131.29153 25 ft 14 kts 183°
2026-05-06 06:44 -0.89429 131.29196 26 ft 15 kts 100°
2026-05-06 06:44 -0.89436 131.29306 25 ft 20 kts 93°
2026-05-06 06:44 -0.89446 131.29469 25 ft 24 kts 94°
2026-05-06 06:44 -0.89458 131.29661 25 ft 29 kts 94°
2026-05-06 06:45 -0.89470 131.29855 25 ft 27 kts 94°
2026-05-06 06:45 -0.89465 131.29962 25 ft 9 kts 63°
2026-05-06 06:45 -0.89457 131.29985 25 ft 2 kts 83°
2026-05-06 06:45 -0.89468 131.29999 27 ft 3 kts 154°
2026-05-06 06:46 -0.89483 131.29983 26 ft 4 kts 264°
2026-05-06 06:46 -0.89481 131.29944 27 ft 11 kts 274°
2026-05-06 06:46 -0.89468 131.29776 25 ft 53 kts 274°
2026-05-06 06:46 -0.89426 131.29159 27 ft 122 kts 274°
2026-05-06 06:47 -0.89347 131.28122 117 ft 169 kts 274°
2026-05-06 06:47 -0.89266 131.26958 887 ft 168 kts 272°
2026-05-06 06:47 -0.89258 131.25788 1677 ft 171 kts 262°
2026-05-06 06:47 -0.89701 131.24629 2194 ft 191 kts 234°
2026-05-06 06:48 -0.90725 131.23816 3031 ft 190 kts 199°
2026-05-06 06:48 -0.92061 131.23722 3712 ft 206 kts 169°
2026-05-06 06:48 -0.93506 131.24205 3970 ft 230 kts 158°
2026-05-06 06:48 -0.94988 131.24921 4440 ft 246 kts 155°
2026-05-06 06:49 -0.96687 131.25471 4721 ft 269 kts 169°
2026-05-06 06:49 -0.98554 131.25861 5417 ft 277 kts 168°
2026-05-06 06:49 -1.00448 131.26304 6238 ft 281 kts 168°
2026-05-06 06:49 -1.02362 131.26739 7031 ft 284 kts 168°
2026-05-06 06:50 -1.04311 131.27156 7801 ft 288 kts 169°
2026-05-06 06:50 -1.06292 131.27555 8539 ft 293 kts 170°
2026-05-06 06:50 -1.08308 131.27943 9287 ft 297 kts 170°
2026-05-06 06:50 -1.10362 131.28327 9957 ft 303 kts 171°
2026-05-06 06:51 -1.12465 131.28714 10449 ft 317 kts 170°
2026-05-06 06:51 -1.14716 131.29123 10602 ft 339 kts 170°
2026-05-06 06:51 -1.17107 131.29557 10823 ft 358 kts 170°
2026-05-06 06:51 -1.19591 131.30004 11314 ft 366 kts 170°
2026-05-06 06:52 -1.22107 131.30458 11939 ft 369 kts 170°
2026-05-06 06:52 -1.24644 131.30916 12583 ft 372 kts 170°
2026-05-06 06:52 -1.27144 131.31588 13176 ft 375 kts 154°
2026-05-06 06:52 -1.29269 131.33089 13763 ft 378 kts 133°
2026-05-06 06:53 -1.30942 131.35121 14372 ft 380 kts 127°
2026-05-06 06:53 -1.32544 131.37229 14948 ft 382 kts 126°
2026-05-06 06:53 -1.34141 131.39364 15498 ft 386 kts 126°
2026-05-06 06:53 -1.35757 131.41518 16044 ft 389 kts 126°
2026-05-06 06:54 -1.37391 131.43683 16582 ft 391 kts 127°
2026-05-06 06:54 -1.39042 131.45853 17118 ft 393 kts 127°
2026-05-06 06:54 -1.40706 131.48030 17612 ft 396 kts 127°
2026-05-06 06:54 -1.42390 131.50227 18106 ft 399 kts 127°
2026-05-06 06:55 -1.44062 131.52406 18585 ft 401 kts 127°
2026-05-06 06:55 -1.45789 131.54657 19050 ft 404 kts 127°
2026-05-06 06:55 -1.47507 131.56892 19518 ft 407 kts 127°
2026-05-06 06:55 -1.49235 131.59144 19960 ft 409 kts 127°
2026-05-06 06:56 -1.50970 131.61406 20379 ft 412 kts 127°
2026-05-06 06:56 -1.52697 131.63658 20792 ft 415 kts 127°
2026-05-06 06:56 -1.54457 131.65953 21178 ft 417 kts 127°
2026-05-06 06:56 -1.56229 131.68261 21566 ft 420 kts 127°
2026-05-06 06:57 -1.58011 131.70584 21949 ft 421 kts 127°
2026-05-06 06:57 -1.59799 131.72915 22298 ft 424 kts 127°
2026-05-06 06:57 -1.61622 131.75291 22640 ft 426 kts 127°
2026-05-06 06:57 -1.63403 131.77612 22969 ft 428 kts 127°
2026-05-06 06:58 -1.65223 131.79983 23281 ft 431 kts 127°
2026-05-06 06:58 -1.67051 131.82365 23608 ft 433 kts 127°
2026-05-06 06:58 -1.68884 131.84753 23932 ft 435 kts 127°
2026-05-06 06:58 -1.70731 131.87159 24255 ft 437 kts 127°
2026-05-06 06:59 -1.72584 131.89571 24559 ft 439 kts 127°
2026-05-06 06:59 -1.74453 131.92002 24921 ft 441 kts 127°
2026-05-06 06:59 -1.76322 131.94435 25207 ft 443 kts 127°
2026-05-06 06:59 -1.78202 131.96883 25436 ft 445 kts 127°
2026-05-06 07:00 -1.80090 131.99342 25672 ft 447 kts 127°
2026-05-06 07:00 -1.81987 132.01814 25922 ft 449 kts 127°
2026-05-06 07:00 -1.83889 132.04293 26167 ft 450 kts 127°
2026-05-06 07:00 -1.85799 132.06781 26407 ft 452 kts 127°
2026-05-06 07:01 -1.87718 132.09282 26640 ft 454 kts 127°
2026-05-06 07:01 -1.89642 132.11792 26863 ft 456 kts 127°
2026-05-06 07:01 -1.91572 132.14309 27090 ft 457 kts 127°
2026-05-06 07:01 -1.93510 132.16834 27316 ft 459 kts 127°
2026-05-06 07:02 -1.95454 132.19366 27532 ft 461 kts 127°
2026-05-06 07:02 -1.97408 132.21912 27746 ft 462 kts 127°
2026-05-06 07:02 -1.99366 132.24463 27954 ft 464 kts 127°
2026-05-06 07:02 -2.01331 132.27021 28158 ft 465 kts 127°
2026-05-06 07:03 -2.02638 132.28724 28283 ft 466 kts 127°
2026-05-06 07:03 -2.04611 132.31297 28468 ft 468 kts 127°
2026-05-06 07:03 -2.06592 132.33879 28681 ft 468 kts 127°
2026-05-06 07:03 -2.08577 132.36466 28867 ft 470 kts 127°
2026-05-06 07:04 -2.10568 132.39064 29065 ft 472 kts 127°
2026-05-06 07:04 -2.12566 132.41669 29284 ft 473 kts 127°
2026-05-06 07:04 -2.14570 132.44283 29473 ft 474 kts 127°
2026-05-06 07:04 -2.16582 132.46905 29637 ft 476 kts 127°
2026-05-06 07:05 -2.18597 132.49533 29800 ft 477 kts 127°
2026-05-06 07:05 -2.20615 132.52165 29972 ft 478 kts 127°
2026-05-06 07:05 -2.22637 132.54801 30203 ft 477 kts 127°
2026-05-06 07:05 -2.24462 132.57537 30435 ft 475 kts 114°
2026-05-06 07:06 -2.25384 132.60689 30669 ft 473 kts 97°
2026-05-06 07:06 -2.25488 132.63960 30940 ft 470 kts 83°
2026-05-06 07:06 -2.24799 132.67149 31162 ft 470 kts 73°
2026-05-06 07:06 -2.23833 132.70272 31393 ft 470 kts 72°
2026-05-06 07:07 -2.22828 132.73377 31640 ft 470 kts 72°
2026-05-06 07:07 -2.21821 132.76490 31945 ft 469 kts 72°
2026-05-06 07:07 -2.20835 132.79597 32233 ft 468 kts 73°
2026-05-06 07:07 -2.19870 132.82698 32534 ft 467 kts 73°
2026-05-06 07:08 -2.18919 132.85797 32782 ft 466 kts 73°
2026-05-06 07:08 -2.17973 132.88898 33007 ft 466 kts 73°
2026-05-06 07:08 -2.17032 132.91995 33274 ft 465 kts 73°
2026-05-06 07:08 -2.16092 132.95084 33558 ft 464 kts 73°
2026-05-06 07:09 -2.15152 132.98165 33824 ft 463 kts 74°
2026-05-06 07:09 -2.14213 133.01240 34079 ft 462 kts 74°
2026-05-06 07:09 -2.13276 133.04305 34335 ft 461 kts 74°
2026-05-06 07:09 -2.12339 133.07374 34581 ft 461 kts 74°
2026-05-06 07:10 -2.11404 133.10437 34789 ft 460 kts 74°
2026-05-06 07:10 -2.09539 133.16552 34798 ft 460 kts 74°
2026-05-06 07:11 -2.07674 133.22664 34810 ft 459 kts 74°
2026-05-06 07:11 -2.05811 133.28774 34811 ft 460 kts 74°
2026-05-06 07:12 -2.03958 133.34843 34806 ft 459 kts 74°
2026-05-06 07:12 -2.02095 133.40949 34811 ft 459 kts 74°
2026-05-06 07:13 -2.00234 133.47048 34807 ft 459 kts 74°
2026-05-06 07:13 -1.98370 133.53156 34813 ft 459 kts 74°
2026-05-06 07:14 -1.96506 133.59258 34801 ft 459 kts 74°
2026-05-06 07:14 -1.94646 133.65355 34801 ft 458 kts 74°
2026-05-06 07:15 -1.92785 133.71453 34808 ft 458 kts 74°
2026-05-06 07:15 -1.90923 133.77545 34807 ft 458 kts 74°
2026-05-06 07:16 -1.89063 133.83634 34801 ft 458 kts 74°
2026-05-06 07:16 -1.87204 133.89718 34808 ft 458 kts 74°
2026-05-06 07:17 -1.85345 133.95801 34798 ft 457 kts 74°
2026-05-06 07:17 -1.83488 134.01878 34804 ft 457 kts 74°
2026-05-06 07:18 -1.81630 134.07961 34814 ft 458 kts 74°
2026-05-06 07:18 -1.79771 134.14048 34802 ft 458 kts 74°
2026-05-06 07:19 -1.77911 134.20129 34805 ft 457 kts 74°
2026-05-06 07:19 -1.76054 134.26208 34801 ft 457 kts 74°
2026-05-06 07:20 -1.74193 134.32286 34807 ft 458 kts 74°
2026-05-06 07:20 -1.72331 134.38379 34806 ft 459 kts 74°
2026-05-06 07:21 -1.70468 134.44479 34808 ft 458 kts 74°
2026-05-06 07:21 -1.68616 134.50527 34795 ft 458 kts 74°
2026-05-06 07:22 -1.66717 134.56601 34811 ft 458 kts 73°
2026-05-06 07:22 -1.64777 134.62659 34808 ft 458 kts 73°
2026-05-06 07:23 -1.62835 134.68723 34808 ft 458 kts 73°
2026-05-06 07:23 -1.60902 134.74784 34800 ft 458 kts 73°
2026-05-06 07:24 -1.58971 134.80852 34801 ft 458 kts 73°
2026-05-06 07:24 -1.57039 134.86919 34805 ft 458 kts 73°
2026-05-06 07:25 -1.55103 134.92996 34808 ft 459 kts 73°
2026-05-06 07:25 -1.53168 134.99068 34806 ft 458 kts 73°
2026-05-06 07:26 -1.51236 135.05137 34809 ft 458 kts 73°
2026-05-06 07:26 -1.49304 135.11206 34808 ft 458 kts 73°
2026-05-06 07:27 -1.47371 135.17273 34805 ft 458 kts 73°
2026-05-06 07:27 -1.45439 135.23335 34811 ft 458 kts 73°
2026-05-06 07:28 -1.43499 135.29406 34807 ft 459 kts 73°
2026-05-06 07:28 -1.40599 135.38522 34796 ft 459 kts 73°
2026-05-06 07:29 -1.38664 135.44590 34805 ft 458 kts 73°
2026-05-06 07:29 -1.36744 135.50611 34807 ft 457 kts 73°
2026-05-06 07:30 -1.34800 135.56706 34801 ft 457 kts 73°
2026-05-06 07:30 -1.32886 135.62714 34810 ft 457 kts 73°
2026-05-06 07:31 -1.30954 135.68759 34801 ft 456 kts 73°
2026-05-06 07:31 -1.29031 135.74795 34800 ft 456 kts 73°
2026-05-06 07:32 -1.27104 135.80840 34803 ft 456 kts 73°
2026-05-06 07:32 -1.25179 135.86881 34802 ft 457 kts 73°
2026-05-06 07:33 -1.23252 135.92923 34806 ft 457 kts 73°
2026-05-06 07:33 -1.21318 135.98985 34798 ft 458 kts 73°
2026-05-06 07:34 -1.19438 136.05067 34799 ft 458 kts 79°
2026-05-06 07:34 -1.19056 136.08216 34814 ft 457 kts 90°
2026-05-06 07:34 -1.19232 136.11384 34803 ft 457 kts 99°
2026-05-06 07:35 -1.20926 136.17483 34801 ft 456 kts 108°
2026-05-06 07:35 -1.22924 136.23510 34795 ft 457 kts 108°
2026-05-06 07:36 -1.24900 136.29544 34805 ft 457 kts 108°
2026-05-06 07:36 -1.26830 136.35557 34810 ft 458 kts 108°
2026-05-06 07:37 -1.28768 136.41661 34807 ft 458 kts 108°
2026-05-06 07:37 -1.30681 136.47688 34799 ft 458 kts 108°
2026-05-06 07:38 -1.32610 136.53758 34799 ft 458 kts 108°
2026-05-06 07:38 -1.34537 136.59817 34810 ft 457 kts 108°
2026-05-06 07:39 -1.36463 136.65878 34803 ft 458 kts 108°
2026-05-06 07:39 -1.38389 136.71939 34800 ft 457 kts 108°
2026-05-06 07:40 -1.40313 136.77990 34798 ft 457 kts 108°
2026-05-06 07:40 -1.42239 136.84045 34813 ft 457 kts 108°
2026-05-06 07:41 -1.44165 136.90100 34806 ft 457 kts 108°
2026-05-06 07:41 -1.46083 136.96142 34813 ft 456 kts 108°
2026-05-06 07:42 -1.48000 137.02180 34798 ft 455 kts 108°
2026-05-06 07:42 -1.49915 137.08211 34797 ft 455 kts 108°
2026-05-06 07:43 -1.51828 137.14231 34807 ft 454 kts 108°
2026-05-06 07:43 -1.53741 137.20247 34807 ft 454 kts 108°
2026-05-06 07:44 -1.55657 137.26273 34797 ft 455 kts 108°
2026-05-06 07:44 -1.57568 137.32297 34799 ft 455 kts 107°
2026-05-06 07:45 -1.59481 137.38328 34793 ft 455 kts 107°
2026-05-06 07:45 -1.61394 137.44349 34802 ft 454 kts 107°
2026-05-06 07:46 -1.63309 137.50367 34799 ft 454 kts 107°
2026-05-06 07:46 -1.65219 137.56383 34793 ft 454 kts 107°
2026-05-06 07:47 -1.67127 137.62404 34798 ft 454 kts 107°
2026-05-06 07:47 -1.69037 137.68421 34795 ft 454 kts 107°
2026-05-06 07:48 -1.70946 137.74439 34797 ft 454 kts 107°
2026-05-06 07:48 -1.72856 137.80454 34796 ft 454 kts 107°
2026-05-06 07:49 -1.74764 137.86468 34797 ft 454 kts 107°
2026-05-06 07:49 -1.76346 137.91462 34802 ft 453 kts 107°
2026-05-06 07:50 -1.78563 137.98443 34793 ft 453 kts 107°
2026-05-06 07:50 -1.80160 138.03459 34798 ft 452 kts 107°
2026-05-06 07:51 -1.82064 138.09453 34797 ft 452 kts 107°
2026-05-06 07:51 -1.83957 138.15401 34799 ft 452 kts 107°
2026-05-06 07:52 -1.85873 138.21428 34795 ft 452 kts 107°
2026-05-06 07:52 -1.87769 138.27382 34796 ft 452 kts 107°
2026-05-06 07:53 -1.89677 138.33380 34795 ft 453 kts 107°
2026-05-06 07:53 -1.91585 138.39388 34793 ft 454 kts 107°
2026-05-06 07:54 -1.93492 138.45394 34787 ft 453 kts 107°
2026-05-06 07:54 -1.95400 138.51404 34800 ft 454 kts 107°
2026-05-06 07:55 -1.97313 138.57420 34782 ft 454 kts 107°
2026-05-06 07:55 -1.99227 138.63447 34792 ft 455 kts 107°
2026-05-06 07:56 -2.01140 138.69473 34790 ft 455 kts 107°
2026-05-06 07:56 -2.03059 138.75511 34779 ft 456 kts 107°
2026-05-06 07:57 -2.04972 138.81543 34782 ft 456 kts 107°
2026-05-06 07:57 -2.06891 138.87584 34782 ft 456 kts 107°
2026-05-06 07:58 -2.08808 138.93621 34713 ft 457 kts 107°
2026-05-06 07:58 -2.09768 138.96674 34127 ft 462 kts 107°
2026-05-06 07:58 -2.10721 138.99739 33497 ft 461 kts 107°
2026-05-06 07:59 -2.11667 139.02791 32944 ft 458 kts 107°
2026-05-06 07:59 -2.12604 139.05816 32489 ft 454 kts 107°
2026-05-06 07:59 -2.13530 139.08820 32007 ft 450 kts 106°
2026-05-06 07:59 -2.14452 139.11795 31537 ft 446 kts 107°
2026-05-06 08:00 -2.15368 139.14741 31075 ft 442 kts 107°
2026-05-06 08:00 -2.16276 139.17659 30611 ft 438 kts 106°
2026-05-06 08:00 -2.17178 139.20559 30152 ft 435 kts 107°
2026-05-06 08:00 -2.18073 139.23436 29702 ft 432 kts 107°
2026-05-06 08:01 -2.18961 139.26296 29242 ft 429 kts 106°
2026-05-06 08:01 -2.19831 139.29097 28769 ft 426 kts 106°
2026-05-06 08:01 -2.20708 139.31910 28310 ft 423 kts 106°
2026-05-06 08:01 -2.21577 139.34707 27847 ft 420 kts 106°
2026-05-06 08:02 -2.22442 139.37493 27388 ft 418 kts 106°
2026-05-06 08:02 -2.23297 139.40252 26926 ft 414 kts 106°
2026-05-06 08:02 -2.24147 139.42993 26472 ft 411 kts 106°
2026-05-06 08:02 -2.24992 139.45717 26025 ft 409 kts 106°
2026-05-06 08:03 -2.25830 139.48423 25573 ft 407 kts 106°
2026-05-06 08:03 -2.26665 139.51113 25132 ft 404 kts 106°
2026-05-06 08:03 -2.27497 139.53794 24678 ft 402 kts 106°
2026-05-06 08:03 -2.28322 139.56449 24236 ft 399 kts 106°
2026-05-06 08:04 -2.29142 139.59089 23794 ft 397 kts 106°
2026-05-06 08:04 -2.29959 139.61716 23357 ft 394 kts 106°
2026-05-06 08:04 -2.30771 139.64326 22922 ft 392 kts 106°
2026-05-06 08:04 -2.31576 139.66918 22488 ft 390 kts 106°
2026-05-06 08:05 -2.32376 139.69496 22055 ft 387 kts 106°
2026-05-06 08:05 -2.33171 139.72057 21628 ft 385 kts 106°
2026-05-06 08:05 -2.33956 139.74589 21200 ft 382 kts 106°
2026-05-06 08:05 -2.34739 139.77117 20776 ft 379 kts 106°
2026-05-06 08:06 -2.35518 139.79632 20354 ft 377 kts 106°
2026-05-06 08:06 -2.36290 139.82122 19933 ft 374 kts 106°
2026-05-06 08:06 -2.37059 139.84599 19521 ft 371 kts 106°
2026-05-06 08:06 -2.37820 139.87053 19093 ft 369 kts 106°
2026-05-06 08:07 -2.38576 139.89492 18684 ft 366 kts 106°
2026-05-06 08:07 -2.39327 139.91911 18272 ft 363 kts 106°
2026-05-06 08:07 -2.40071 139.94313 17867 ft 360 kts 106°
2026-05-06 08:07 -2.40809 139.96693 17462 ft 357 kts 106°
2026-05-06 08:08 -2.41543 139.99056 17070 ft 354 kts 106°
2026-05-06 08:08 -2.42268 140.01394 16709 ft 350 kts 106°
2026-05-06 08:08 -2.42987 140.03714 16317 ft 348 kts 106°
2026-05-06 08:08 -2.43701 140.06016 15924 ft 346 kts 106°
2026-05-06 08:09 -2.44411 140.08306 15537 ft 344 kts 106°
2026-05-06 08:09 -2.45116 140.10580 15154 ft 342 kts 106°
2026-05-06 08:09 -2.45817 140.12844 14764 ft 340 kts 106°
2026-05-06 08:09 -2.46514 140.15095 14378 ft 338 kts 106°
2026-05-06 08:10 -2.47208 140.17335 13994 ft 336 kts 107°
2026-05-06 08:10 -2.47904 140.19556 13608 ft 334 kts 107°
2026-05-06 08:10 -2.48621 140.21762 13235 ft 333 kts 107°
2026-05-06 08:10 -2.49340 140.23954 12847 ft 331 kts 108°
2026-05-06 08:11 -2.50056 140.26132 12466 ft 329 kts 108°
2026-05-06 08:11 -2.50772 140.28305 12098 ft 328 kts 108°
2026-05-06 08:11 -2.51483 140.30462 11718 ft 326 kts 108°
2026-05-06 08:11 -2.52188 140.32607 11347 ft 324 kts 108°
2026-05-06 08:12 -2.52888 140.34744 10974 ft 323 kts 108°
2026-05-06 08:12 -2.53585 140.36872 10607 ft 321 kts 108°
2026-05-06 08:12 -2.54271 140.38981 10386 ft 314 kts 108°
2026-05-06 08:12 -2.54930 140.41013 10379 ft 301 kts 108°
2026-05-06 08:13 -2.55569 140.42990 10300 ft 298 kts 108°
2026-05-06 08:13 -2.56207 140.44963 10191 ft 298 kts 108°
2026-05-06 08:13 -2.56844 140.46938 10068 ft 300 kts 108°
2026-05-06 08:13 -2.57483 140.48917 9756 ft 305 kts 108°
2026-05-06 08:14 -2.58133 140.50936 9458 ft 304 kts 108°
2026-05-06 08:14 -2.58776 140.52939 9153 ft 301 kts 108°
2026-05-06 08:14 -2.59414 140.54935 8848 ft 299 kts 108°
2026-05-06 08:14 -2.60044 140.56910 8548 ft 297 kts 108°
2026-05-06 08:15 -2.60665 140.58861 8276 ft 293 kts 108°
2026-05-06 08:15 -2.61271 140.60768 8017 ft 290 kts 108°
2026-05-06 08:15 -2.61878 140.62679 7753 ft 286 kts 108°
2026-05-06 08:15 -2.62479 140.64566 7476 ft 284 kts 108°
2026-05-06 08:16 -2.63074 140.66437 7248 ft 280 kts 108°
2026-05-06 08:16 -2.63662 140.68285 7033 ft 277 kts 108°
2026-05-06 08:16 -2.64246 140.70121 6873 ft 278 kts 108°
2026-05-06 08:16 -2.64890 140.71944 6717 ft 278 kts 118°
2026-05-06 08:17 -2.66134 140.73392 6652 ft 277 kts 144°
2026-05-06 08:17 -2.67803 140.74386 6406 ft 284 kts 151°
2026-05-06 08:17 -2.69607 140.75320 5811 ft 291 kts 156°
2026-05-06 08:17 -2.71534 140.75732 5539 ft 278 kts 183°
2026-05-06 08:18 -2.73327 140.75154 5446 ft 275 kts 215°
2026-05-06 08:18 -2.74534 140.73680 5198 ft 280 kts 249°
2026-05-06 08:18 -2.74744 140.71769 5003 ft 280 kts 281°
2026-05-06 08:18 -2.73906 140.70057 4701 ft 276 kts 314°
2026-05-06 08:19 -2.72330 140.68989 4367 ft 273 kts 332°
2026-05-06 08:19 -2.70759 140.67959 4004 ft 267 kts 321°
2026-05-06 08:19 -2.69385 140.66739 3678 ft 261 kts 315°
2026-05-06 08:19 -2.68184 140.65430 3353 ft 250 kts 312°
2026-05-06 08:20 -2.67083 140.64128 3012 ft 240 kts 309°
2026-05-06 08:20 -2.66086 140.62829 2726 ft 231 kts 307°
2026-05-06 08:20 -2.65150 140.61571 2405 ft 218 kts 307°
2026-05-06 08:20 -2.64268 140.60390 2124 ft 205 kts 308°
2026-05-06 08:21 -2.63443 140.59293 1861 ft 190 kts 308°
2026-05-06 08:21 -2.62672 140.58266 1602 ft 179 kts 308°
2026-05-06 08:21 -2.61947 140.57300 1372 ft 170 kts 308°
2026-05-06 08:21 -2.61251 140.56376 1195 ft 161 kts 308°
2026-05-06 08:22 -2.60602 140.55510 956 ft 152 kts 308°
2026-05-06 08:22 -2.59976 140.54676 759 ft 150 kts 308°
2026-05-06 08:22 -2.59353 140.53846 584 ft 145 kts 308°
2026-05-06 08:22 -2.58757 140.53050 337 ft 144 kts 307°
2026-05-06 08:23 -2.58190 140.52304 297 ft 111 kts 308°
2026-05-06 08:23 -2.57855 140.51855 300 ft 57 kts 307°
2026-05-06 08:23 -2.57731 140.51690 299 ft 21 kts 307°
2026-05-06 08:23 -2.57651 140.51585 298 ft 10 kts 307°
2026-05-06 08:24 -2.57601 140.51541 298 ft 10 kts 358°
2026-05-06 08:24 -2.57549 140.51569 297 ft 4 kts 35°
2026-05-06 08:24 -2.57526 140.51585 297 ft 4 kts 35°
2026-05-06 08:24 -2.57513 140.51595 297 ft 0 kts 35°
2026-05-06 08:25 -2.57499 140.51604 297 ft 4 kts 33°
2026-05-06 08:25 -2.57466 140.51597 297 ft 7 kts 323°
2026-05-06 08:25 -2.57432 140.51557 297 ft 8 kts 305°
2026-05-06 08:25 -2.57402 140.51514 299 ft 7 kts 306°
2026-05-06 08:26 -2.57372 140.51473 297 ft 7 kts 306°
2026-05-06 08:26 -2.57342 140.51433 297 ft 8 kts 308°
2026-05-06 08:26 -2.57301 140.51379 297 ft 11 kts 308°
2026-05-06 08:26 -2.57255 140.51319 297 ft 11 kts 307°
2026-05-06 08:27 -2.57214 140.51263 297 ft 5 kts 305°
2026-05-06 08:27 -2.57194 140.51238 297 ft 5 kts 320°
2026-05-06 08:27 -2.57165 140.51247 300 ft 4 kts 35°
2026-05-06 08:27 -2.57145 140.51262 299 ft 3 kts 36°
2026-05-06 08:28 -2.57131 140.51273 301 ft 1 kts 36°
2026-05-06 08:28 -2.57125 140.51277 297 ft 0 kts 36°